カタログに戻る

COSMOS 593

運用中軍事LEO
NORAD 6850·PAYLOAD·🇷🇺 Russia

打ち上げ Oct 2, 1973 から Plesetsk Cosmodrome

Loading…

次のパス (今後24時間)

TLE

最新Source: Space-Track

元期: Sep 14, 2026, 10:34 UTC

1 06850U 73069F   26257.44041957 -.00000036  00000-0 -11501-3 0  9992
2 06850  73.9997  56.8366 0077308  95.3095 294.6898 12.59722188434793

AllMySatでCOSMOS 593をリアルタイム追跡

Download on the App Store